{"data":{"norad_id":68091,"epoch":"2026-09-19T13:57:24.179904Z","epoch_age_seconds":134755,"freshness":"FRESH","line1":"1 68091U 26042Y   26262.58152986  .00027507  00000+0  82177-3 0  9998","line2":"2 68091  53.1613 353.6577 0000998  57.2860 302.8239 15.34418518 32052","mean_motion":15.34418518,"eccentricity":9.98e-5,"inclination_deg":53.1613,"raan_deg":353.6577,"arg_perigee_deg":57.286,"mean_anomaly_deg":302.8239,"bstar":0.00082177,"rev_number":3205,"period_min":93.84662548761,"perigee_km":461.96549099905,"apogee_km":463.33091172524,"semimajor_km":6840.7852013621,"source":"CELESTRAK","updated_at":"2026-09-20T09:00:43.782512Z"}}